Dansville, NY

2:31 AM EDT on June 25, 2018 (GMT -0400)
Dansville Municipal

Weather History for KDSV - September, 2017

Change the Weather History Date:

Wednesday, September 13, 2017

  Actual Average Record
Temperature  
Mean Temperature 66 °F -  
Max Temperature 82 °F 75 °F 94 °F (1952)
Min Temperature 51 °F 49 °F 33 °F (1964)
Cooling Degree Days 2    
Growing Degree Days 16 (Base 50)    
Moisture  
Dew Point 58 °F    
Average Humidity 75    
Maximum Humidity 90    
Minimum Humidity 51    
Precipitation  
Precipitation 0.00 in - - ()
Sea Level Pressure  
Sea Level Pressure 29.88 in    
Wind  
Wind Speed 6 mph (ESE)    
Max Wind Speed 9 mph    
Max Gust Speed -    
Visibility 10 miles    
Events      
Averages and records for this station are not official NWS values.
T = Trace of Precipitation, MM = Missing Value Source: NWS Daily Summary

Daily Weather History Graph

Daily Weather History Graph

Search for Another Location

Airport or City:

Astronomy

Sep. 13, 2017 Rise Set
Actual Time 6:48 AM EDT 7:23 PM EDT
Civil Twilight 6:20 AM EDT 7:52 PM EDT
Nautical Twilight 5:46 AM EDT 8:25 PM EDT
Astronomical Twilight 5:12 AM EDT 8:59 PM EDT
Moon No Moon Rise 2:42 PM EDT (9/13)
Length of Visible Light 13h 31m
Length of Day
12h 34m
Last Quarter, 46% of the Moon is Illuminated
Sep 13
Last Quarter
Sep 20
New
Sep 27
First Quarter
Oct 5
Full
Oct 12
Last Quarter

Hourly Weather History & Observations

Time (EDT) Temp. Heat Index Dew Point Humidity Pressure Visibility Wind Dir Wind Speed Gust Speed Precip Events Conditions
12:54 AM 55.9 °F - 53.1 °F 90% 29.96 in 10.0 mi SSE 3.5 mph - N/A   Clear
1:54 AM 54.0 °F - 51.1 °F 90% 29.96 in 10.0 mi SE 6.9 mph - N/A   Clear
2:54 AM 53.1 °F - 50.0 °F 89% 29.95 in 10.0 mi SE 6.9 mph - N/A   Clear
3:54 AM 52.0 °F - 48.9 °F 89% 29.94 in 10.0 mi SE 8.1 mph - N/A   Clear
4:54 AM 52.0 °F - 48.9 °F 89% 29.93 in 10.0 mi SE 9.2 mph - N/A   Clear
5:54 AM 51.1 °F - 48.0 °F 89% 29.94 in 10.0 mi SE 8.1 mph - N/A   Clear
6:54 AM 53.1 °F - 48.9 °F 86% 29.94 in 10.0 mi SE 8.1 mph - N/A   Clear
7:54 AM 54.0 °F - 50.0 °F 86% 29.95 in 10.0 mi ESE 6.9 mph - N/A   Clear
8:54 AM 57.0 °F - 51.1 °F 81% 29.94 in 10.0 mi ESE 5.8 mph - N/A   Partly Cloudy
9:54 AM 61.0 °F - 54.0 °F 78% 29.94 in 10.0 mi SE 5.8 mph - N/A   Overcast
10:54 AM 66.0 °F - 57.0 °F 73% 29.91 in 10.0 mi SE 6.9 mph - N/A   Overcast
11:54 AM 73.0 °F - 57.9 °F 59% 29.88 in 10.0 mi Calm Calm - N/A   Partly Cloudy
12:54 PM 77.0 °F - 61.0 °F 58% 29.87 in 10.0 mi NW 5.8 mph - N/A   Mostly Cloudy
1:54 PM 77.0 °F - 63.0 °F 62% 29.84 in 10.0 mi WNW 5.8 mph - N/A   Overcast
2:54 PM 81.0 °F 82.5 °F 64.0 °F 56% 29.82 in 10.0 mi NNW 3.5 mph - N/A   Scattered Clouds
3:54 PM 82.9 °F 84.0 °F 63.0 °F 51% 29.80 in 10.0 mi Calm Calm - N/A   Partly Cloudy
4:54 PM 82.0 °F 83.8 °F 64.9 °F 56% 29.79 in 10.0 mi NW 5.8 mph - N/A   Overcast
5:54 PM 81.0 °F 82.7 °F 64.9 °F 58% 29.79 in 10.0 mi NW 3.5 mph - N/A   Mostly Cloudy
6:54 PM 77.0 °F - 66.0 °F 69% 29.81 in 10.0 mi NW 8.1 mph - N/A   Overcast
7:54 PM 73.0 °F - 66.0 °F 79% 29.82 in 10.0 mi NNW 4.6 mph - N/A   Mostly Cloudy
8:54 PM 72.0 °F - 64.9 °F 78% 29.83 in 10.0 mi NW 4.6 mph - N/A   Overcast
9:54 PM 71.1 °F - 64.9 °F 81% 29.84 in 10.0 mi West 3.5 mph - N/A   Overcast
10:54 PM 70.0 °F - 63.0 °F 78% 29.83 in 10.0 mi NNE 6.9 mph - N/A   Mostly Cloudy
11:54 PM 69.1 °F - 63.0 °F 81% 29.84 in 10.0 mi Calm Calm - N/A   Overcast